Time,TemperatureF,DewpointF,PressureIn,WindDirection,WindDirectionDegrees,WindSpeedMPH,WindSpeedGustMPH,Humidity,HourlyPrecipIn,Conditions,Clouds,dailyrainin,SolarRadiationWatts/m^2,SoftwareType,DateUTC
2013-05-04 00:04:00,64.4,59.1,29.81,SE,138,1.0,4.0,83,0.00,,,0.00,0,HR-IXP-WINDi_r2_v1.2,2013-05-04 07:04:00,
2013-05-04 00:09:00,64.3,59.3,29.81,SE,138,1.0,4.0,84,0.00,,,0.00,0,HR-IXP-WINDi_r2_v1.2,2013-05-04 07:09:00,
2013-05-04 00:15:00,64.2,59.2,29.81,SE,138,2.0,4.0,84,0.00,,,0.00,0,HR-IXP-WINDi_r2_v1.2,2013-05-04 07:15:00,
2013-05-04 00:20:00,64.1,59.4,29.81,SE,138,1.0,3.0,85,0.00,,,0.00,0,HR-IXP-WINDi_r2_v1.2,2013-05-04 07:20:00,
2013-05-04 00:25:00,64.1,59.4,29.81,SE,139,0.0,3.0,85,0.00,,,0.00,0,HR-IXP-WINDi_r2_v1.2,2013-05-04 07:25:00,
2013-05-04 00:30:00,64.0,59.7,29.81,SE,139,0.0,3.0,86,0.00,,,0.00,0,HR-IXP-WINDi_r2_v1.2,2013-05-04 07:30:00,
2013-05-04 00:35:00,63.8,59.5,29.81,SE,140,1.0,2.0,86,0.00,,,0.00,0,HR-IXP-WINDi_r2_v1.2,2013-05-04 07:35:00,
2013-05-04 00:40:00,63.7,59.4,29.81,SE,140,0.0,2.0,86,0.00,,,0.00,0,HR-IXP-WINDi_r2_v1.2,2013-05-04 07:40:00,
2013-05-04 00:46:00,63.8,59.8,29.81,SE,140,1.0,2.0,87,0.00,,,0.00,0,HR-IXP-WINDi_r2_v1.2,2013-05-04 07:46:00,
2013-05-04 00:51:00,63.7,59.7,29.81,SE,140,0.0,3.0,87,0.00,,,0.00,0,HR-IXP-WINDi_r2_v1.2,2013-05-04 07:51:00,
2013-05-04 00:56:00,63.4,59.4,29.81,SE,140,0.0,3.0,87,0.00,,,0.00,0,HR-IXP-WINDi_r2_v1.2,2013-05-04 07:56:00,
2013-05-04 01:01:00,63.4,59.7,29.80,SE,140,1.0,1.0,88,0.00,,,0.00,0,HR-IXP-WINDi_r2_v1.2,2013-05-04 08:01:00,
2013-05-04 01:06:00,63.4,59.7,29.80,SE,140,0.0,2.0,88,0.00,,,0.00,0,HR-IXP-WINDi_r2_v1.2,2013-05-04 08:06:00,
2013-05-04 01:11:00,63.4,59.7,29.80,SE,140,0.0,2.0,88,0.00,,,0.00,0,HR-IXP-WINDi_r2_v1.2,2013-05-04 08:11:00,
2013-05-04 01:16:00,63.2,59.8,29.80,SE,140,1.0,2.0,89,0.00,,,0.00,0,HR-IXP-WINDi_r2_v1.2,2013-05-04 08:16:00,
2013-05-04 01:22:00,63.1,59.7,29.80,SE,140,1.0,2.0,89,0.00,,,0.00,0,HR-IXP-WINDi_r2_v1.2,2013-05-04 08:22:00,
2013-05-04 01:27:00,63.0,59.6,29.80,SE,140,1.0,2.0,89,0.00,,,0.00,0,HR-IXP-WINDi_r2_v1.2,2013-05-04 08:27:00,
2013-05-04 01:32:00,63.0,59.6,29.80,SE,140,1.0,2.0,89,0.00,,,0.00,0,HR-IXP-WINDi_r2_v1.2,2013-05-04 08:32:00,
2013-05-04 01:37:00,62.8,59.8,29.79,SE,140,1.0,3.0,90,0.00,,,0.00,0,HR-IXP-WINDi_r2_v1.2,2013-05-04 08:37:00,
2013-05-04 01:42:00,62.9,59.9,29.79,SE,140,0.0,3.0,90,0.00,,,0.00,0,HR-IXP-WINDi_r2_v1.2,2013-05-04 08:42:00,
2013-05-04 01:47:00,62.7,59.7,29.79,SE,140,0.0,2.0,90,0.00,,,0.00,0,HR-IXP-WINDi_r2_v1.2,2013-05-04 08:47:00,
2013-05-04 01:52:00,62.7,59.7,29.79,SSE,165,0.0,4.0,90,0.00,,,0.00,0,HR-IXP-WINDi_r2_v1.2,2013-05-04 08:52:00,
2013-05-04 01:57:00,62.6,59.6,29.79,South,184,2.0,4.0,90,0.00,,,0.00,0,HR-IXP-WINDi_r2_v1.2,2013-05-04 08:57:00,
2013-05-04 02:03:00,62.5,59.5,29.79,South,182,2.0,4.0,90,0.00,,,0.00,0,HR-IXP-WINDi_r2_v1.2,2013-05-04 09:03:00,
2013-05-04 02:08:00,62.5,59.5,29.79,South,176,0.0,3.0,90,0.00,,,0.00,0,HR-IXP-WINDi_r2_v1.2,2013-05-04 09:08:00,
2013-05-04 02:13:00,62.5,59.5,29.78,South,176,0.0,3.0,90,0.00,,,0.00,0,HR-IXP-WINDi_r2_v1.2,2013-05-04 09:13:00,
2013-05-04 02:19:00,62.3,59.3,29.78,South,176,0.0,3.0,90,0.00,,,0.00,0,HR-IXP-WINDi_r2_v1.2,2013-05-04 09:19:00,
2013-05-04 02:24:00,62.1,59.4,29.78,South,176,0.0,1.0,91,0.00,,,0.00,0,HR-IXP-WINDi_r2_v1.2,2013-05-04 09:24:00,
2013-05-04 02:29:00,62.2,59.5,29.78,South,176,0.0,2.0,91,0.00,,,0.00,0,HR-IXP-WINDi_r2_v1.2,2013-05-04 09:29:00,
2013-05-04 02:34:00,62.1,59.4,29.78,South,176,0.0,2.0,91,0.00,,,0.00,0,HR-IXP-WINDi_r2_v1.2,2013-05-04 09:34:00,
2013-05-04 02:40:00,62.0,59.3,29.78,South,176,0.0,1.0,91,0.00,,,0.00,0,HR-IXP-WINDi_r2_v1.2,2013-05-04 09:40:00,
2013-05-04 02:45:00,61.9,59.2,29.78,South,176,1.0,2.0,91,0.00,,,0.00,0,HR-IXP-WINDi_r2_v1.2,2013-05-04 09:45:00,
2013-05-04 02:50:00,61.9,59.2,29.78,South,176,1.0,2.0,91,0.00,,,0.00,0,HR-IXP-WINDi_r2_v1.2,2013-05-04 09:50:00,
2013-05-04 02:55:00,61.9,59.2,29.78,South,176,0.0,3.0,91,0.00,,,0.00,0,HR-IXP-WINDi_r2_v1.2,2013-05-04 09:55:00,
2013-05-04 03:00:00,61.9,59.2,29.78,South,176,0.0,3.0,91,0.00,,,0.00,0,HR-IXP-WINDi_r2_v1.2,2013-05-04 10:00:00,
2013-05-04 03:05:00,61.9,59.2,29.78,South,177,0.0,3.0,91,0.00,,,0.00,0,HR-IXP-WINDi_r2_v1.2,2013-05-04 10:05:00,
2013-05-04 03:11:00,61.9,59.2,29.78,South,177,0.0,3.0,91,0.00,,,0.00,0,HR-IXP-WINDi_r2_v1.2,2013-05-04 10:11:00,
2013-05-04 03:16:00,61.6,58.9,29.78,South,177,0.0,2.0,91,0.00,,,0.00,0,HR-IXP-WINDi_r2_v1.2,2013-05-04 10:16:00,
2013-05-04 03:21:00,61.4,59.0,29.78,South,177,0.0,1.0,92,0.00,,,0.00,0,HR-IXP-WINDi_r2_v1.2,2013-05-04 10:21:00,
2013-05-04 03:26:00,61.4,59.0,29.78,South,177,0.0,1.0,92,0.00,,,0.00,0,HR-IXP-WINDi_r2_v1.2,2013-05-04 10:26:00,
2013-05-04 03:31:00,61.3,58.9,29.78,South,177,1.0,2.0,92,0.00,,,0.00,0,HR-IXP-WINDi_r2_v1.2,2013-05-04 10:31:00,
2013-05-04 03:37:00,61.3,58.9,29.78,South,177,1.0,2.0,92,0.00,,,0.00,0,HR-IXP-WINDi_r2_v1.2,2013-05-04 10:37:00,
2013-05-04 03:42:00,61.2,58.8,29.78,South,183,0.0,3.0,92,0.00,,,0.00,0,HR-IXP-WINDi_r2_v1.2,2013-05-04 10:42:00,
2013-05-04 03:47:00,61.1,58.7,29.78,South,179,1.0,3.0,92,0.00,,,0.00,0,HR-IXP-WINDi_r2_v1.2,2013-05-04 10:47:00,
2013-05-04 03:52:00,61.0,58.9,29.78,South,179,1.0,3.0,93,0.00,,,0.00,0,HR-IXP-WINDi_r2_v1.2,2013-05-04 10:52:00,
2013-05-04 03:57:00,60.9,58.5,29.78,South,172,2.0,2.0,92,0.00,,,0.00,0,HR-IXP-WINDi_r2_v1.2,2013-05-04 10:57:00,
2013-05-04 04:02:00,60.8,58.7,29.77,South,174,0.0,4.0,93,0.00,,,0.00,0,HR-IXP-WINDi_r2_v1.2,2013-05-04 11:02:00,
2013-05-04 04:08:00,60.7,58.3,29.77,South,173,1.0,4.0,92,0.00,,,0.00,0,HR-IXP-WINDi_r2_v1.2,2013-05-04 11:08:00,
2013-05-04 04:13:00,60.5,58.4,29.78,South,173,2.0,3.0,93,0.00,,,0.00,0,HR-IXP-WINDi_r2_v1.2,2013-05-04 11:13:00,
2013-05-04 04:18:00,60.5,58.4,29.78,South,173,0.0,3.0,93,0.00,,,0.00,0,HR-IXP-WINDi_r2_v1.2,2013-05-04 11:18:00,
2013-05-04 04:23:00,60.3,58.2,29.78,South,173,0.0,2.0,93,0.00,,,0.00,0,HR-IXP-WINDi_r2_v1.2,2013-05-04 11:23:00,
2013-05-04 04:29:00,60.2,58.1,29.78,South,173,0.0,2.0,93,0.00,,,0.00,0,HR-IXP-WINDi_r2_v1.2,2013-05-04 11:29:00,
2013-05-04 04:34:00,60.0,57.9,29.78,South,173,0.0,2.0,93,0.00,,,0.00,0,HR-IXP-WINDi_r2_v1.2,2013-05-04 11:34:00,
2013-05-04 04:39:00,59.9,57.8,29.78,South,173,0.0,2.0,93,0.00,,,0.00,0,HR-IXP-WINDi_r2_v1.2,2013-05-04 11:39:00,
2013-05-04 04:44:00,59.9,57.8,29.78,South,173,0.0,2.0,93,0.00,,,0.00,0,HR-IXP-WINDi_r2_v1.2,2013-05-04 11:44:00,
2013-05-04 04:50:00,59.9,57.8,29.78,South,173,0.0,2.0,93,0.00,,,0.00,0,HR-IXP-WINDi_r2_v1.2,2013-05-04 11:50:00,
2013-05-04 04:55:00,59.9,57.8,29.78,South,173,0.0,3.0,93,0.00,,,0.00,0,HR-IXP-WINDi_r2_v1.2,2013-05-04 11:55:00,
2013-05-04 05:00:00,59.9,57.8,29.78,SSE,150,2.0,5.0,93,0.00,,,0.00,0,HR-IXP-WINDi_r2_v1.2,2013-05-04 12:00:00,
2013-05-04 05:05:00,59.8,57.7,29.78,SSE,157,1.0,5.0,93,0.00,,,0.00,0,HR-IXP-WINDi_r2_v1.2,2013-05-04 12:05:00,
2013-05-04 05:10:00,59.7,57.6,29.78,SSE,167,1.0,4.0,93,0.00,,,0.00,0,HR-IXP-WINDi_r2_v1.2,2013-05-04 12:10:00,
2013-05-04 05:16:00,59.8,57.7,29.78,SSE,167,0.0,4.0,93,0.00,,,0.00,0,HR-IXP-WINDi_r2_v1.2,2013-05-04 12:16:00,
2013-05-04 05:21:00,59.7,57.6,29.79,SSE,167,2.0,4.0,93,0.00,,,0.00,0,HR-IXP-WINDi_r2_v1.2,2013-05-04 12:21:00,
2013-05-04 05:26:00,59.7,57.6,29.79,SSE,167,0.0,3.0,93,0.00,,,0.00,0,HR-IXP-WINDi_r2_v1.2,2013-05-04 12:26:00,
2013-05-04 05:31:00,59.6,57.2,29.78,SE,140,3.0,5.0,92,0.00,,,0.00,0,HR-IXP-WINDi_r2_v1.2,2013-05-04 12:31:00,
2013-05-04 05:37:00,59.8,57.7,29.78,SSE,150,2.0,5.0,93,0.00,,,0.00,0,HR-IXP-WINDi_r2_v1.2,2013-05-04 12:37:00,
2013-05-04 05:42:00,59.7,57.3,29.78,SSE,157,1.0,5.0,92,0.00,,,0.00,0,HR-IXP-WINDi_r2_v1.2,2013-05-04 12:42:00,
2013-05-04 05:47:00,59.6,57.2,29.78,SSE,159,3.0,5.0,92,0.00,,,0.00,0,HR-IXP-WINDi_r2_v1.2,2013-05-04 12:47:00,
2013-05-04 05:52:00,59.6,57.2,29.78,SE,145,1.0,5.0,92,0.00,,,0.00,0,HR-IXP-WINDi_r2_v1.2,2013-05-04 12:52:00,
2013-05-04 05:58:00,59.5,57.1,29.78,SE,146,2.0,5.0,92,0.00,,,0.00,0,HR-IXP-WINDi_r2_v1.2,2013-05-04 12:58:00,
2013-05-04 06:03:00,59.5,57.1,29.79,SSE,157,1.0,4.0,92,0.00,,,0.00,0,HR-IXP-WINDi_r2_v1.2,2013-05-04 13:03:00,
2013-05-04 06:08:00,59.5,57.1,29.79,SE,138,4.0,4.0,92,0.00,,,0.00,7,HR-IXP-WINDi_r2_v1.2,2013-05-04 13:08:00,
2013-05-04 06:13:00,59.6,57.2,29.79,SE,135,3.0,5.0,92,0.00,,,0.00,11,HR-IXP-WINDi_r2_v1.2,2013-05-04 13:13:00,
2013-05-04 06:18:00,59.4,57.0,29.79,SE,132,3.0,6.0,92,0.00,,,0.00,14,HR-IXP-WINDi_r2_v1.2,2013-05-04 13:18:00,
2013-05-04 06:24:00,59.4,57.0,29.80,SE,145,4.0,7.0,92,0.00,,,0.00,19,HR-IXP-WINDi_r2_v1.2,2013-05-04 13:24:00,
2013-05-04 06:29:00,59.4,57.0,29.80,SE,132,3.0,7.0,92,0.00,,,0.00,25,HR-IXP-WINDi_r2_v1.2,2013-05-04 13:29:00,
2013-05-04 06:34:00,59.2,56.8,29.80,SE,133,3.0,6.0,92,0.00,,,0.00,37,HR-IXP-WINDi_r2_v1.2,2013-05-04 13:34:00,
2013-05-04 06:39:00,59.1,56.7,29.80,SE,134,3.0,7.0,92,0.00,,,0.00,49,HR-IXP-WINDi_r2_v1.2,2013-05-04 13:39:00,
2013-05-04 06:44:00,59.1,56.7,29.80,SE,125,1.0,7.0,92,0.00,,,0.00,58,HR-IXP-WINDi_r2_v1.2,2013-05-04 13:44:00,
2013-05-04 06:49:00,59.2,56.5,29.80,ESE,112,1.0,7.0,91,0.00,,,0.00,72,HR-IXP-WINDi_r2_v1.2,2013-05-04 13:49:00,
2013-05-04 06:54:00,59.4,56.7,29.80,ESE,110,2.0,7.0,91,0.00,,,0.00,86,HR-IXP-WINDi_r2_v1.2,2013-05-04 13:54:00,
2013-05-04 06:59:00,59.6,56.9,29.81,SE,144,2.0,4.0,91,0.00,,,0.00,93,HR-IXP-WINDi_r2_v1.2,2013-05-04 13:59:00,
2013-05-04 07:04:00,59.9,57.2,29.81,SSE,158,2.0,6.0,91,0.00,,,0.00,98,HR-IXP-WINDi_r2_v1.2,2013-05-04 14:04:00,
2013-05-04 07:10:00,60.2,57.5,29.81,SE,138,2.0,6.0,91,0.00,,,0.00,113,HR-IXP-WINDi_r2_v1.2,2013-05-04 14:10:00,
2013-05-04 07:15:00,60.5,57.5,29.81,SE,132,1.0,5.0,90,0.00,,,0.00,130,HR-IXP-WINDi_r2_v1.2,2013-05-04 14:15:00,
2013-05-04 07:20:00,60.7,57.7,29.81,SE,146,2.0,8.0,90,0.00,,,0.00,149,HR-IXP-WINDi_r2_v1.2,2013-05-04 14:20:00,
2013-05-04 07:25:00,60.9,57.6,29.81,SE,130,3.0,8.0,89,0.00,,,0.00,171,HR-IXP-WINDi_r2_v1.2,2013-05-04 14:25:00,
2013-05-04 07:30:00,61.2,57.9,29.81,South,179,2.0,8.0,89,0.00,,,0.00,171,HR-IXP-WINDi_r2_v1.2,2013-05-04 14:30:00,
2013-05-04 07:35:00,61.2,57.5,29.81,SSE,151,2.0,8.0,88,0.00,,,0.00,102,HR-IXP-WINDi_r2_v1.2,2013-05-04 14:35:00,
2013-05-04 07:40:00,61.2,57.5,29.82,SE,145,4.0,8.0,88,0.00,,,0.00,137,HR-IXP-WINDi_r2_v1.2,2013-05-04 14:40:00,
2013-05-04 07:46:00,61.4,57.7,29.82,SE,140,3.0,7.0,88,0.00,,,0.00,185,HR-IXP-WINDi_r2_v1.2,2013-05-04 14:46:00,
2013-05-04 07:51:00,61.7,58.0,29.82,SE,132,3.0,7.0,88,0.00,,,0.00,160,HR-IXP-WINDi_r2_v1.2,2013-05-04 14:51:00,
2013-05-04 07:56:00,61.7,57.7,29.82,SSE,165,1.0,7.0,87,0.00,,,0.00,142,HR-IXP-WINDi_r2_v1.2,2013-05-04 14:56:00,
2013-05-04 08:01:00,61.7,57.7,29.82,SE,126,1.0,5.0,87,0.00,,,0.00,160,HR-IXP-WINDi_r2_v1.2,2013-05-04 15:01:00,
2013-05-04 08:07:00,61.8,57.8,29.82,SSE,153,2.0,4.0,87,0.00,,,0.00,369,HR-IXP-WINDi_r2_v1.2,2013-05-04 15:07:00,
2013-05-04 08:12:00,62.0,57.7,29.81,SSE,162,2.0,4.0,86,0.00,,,0.00,345,HR-IXP-WINDi_r2_v1.2,2013-05-04 15:12:00,
2013-05-04 08:17:00,62.4,58.1,29.81,SSE,147,3.0,4.0,86,0.00,,,0.00,422,HR-IXP-WINDi_r2_v1.2,2013-05-04 15:17:00,
2013-05-04 08:22:00,63.0,58.4,29.82,SSE,161,1.0,5.0,85,0.00,,,0.00,441,HR-IXP-WINDi_r2_v1.2,2013-05-04 15:22:00,
2013-05-04 08:28:00,62.9,57.9,29.82,SSE,159,3.0,7.0,84,0.00,,,0.00,213,HR-IXP-WINDi_r2_v1.2,2013-05-04 15:28:00,
2013-05-04 08:33:00,63.1,58.5,29.82,South,172,1.0,7.0,85,0.00,,,0.00,411,HR-IXP-WINDi_r2_v1.2,2013-05-04 15:33:00,
2013-05-04 08:38:00,64.0,58.7,29.82,SSE,149,3.0,7.0,83,0.00,,,0.00,417,HR-IXP-WINDi_r2_v1.2,2013-05-04 15:38:00,
2013-05-04 08:43:00,65.0,59.0,29.82,SE,127,4.0,7.0,81,0.00,,,0.00,461,HR-IXP-WINDi_r2_v1.2,2013-05-04 15:43:00,
2013-05-04 08:48:00,65.8,58.7,29.82,SE,142,1.0,7.0,78,0.00,,,0.00,487,HR-IXP-WINDi_r2_v1.2,2013-05-04 15:48:00,
2013-05-04 08:53:00,65.3,57.8,29.82,SSE,148,5.0,8.0,77,0.00,,,0.00,506,HR-IXP-WINDi_r2_v1.2,2013-05-04 15:53:00,
2013-05-04 08:58:00,65.7,58.2,29.82,South,184,3.0,8.0,77,0.00,,,0.00,489,HR-IXP-WINDi_r2_v1.2,2013-05-04 15:58:00,
2013-05-04 09:03:00,66.3,58.1,29.81,SSE,153,1.0,7.0,75,0.00,,,0.00,504,HR-IXP-WINDi_r2_v1.2,2013-05-04 16:03:00,
2013-05-04 09:09:00,67.2,58.9,29.82,SSE,153,3.0,6.0,75,0.00,,,0.00,512,HR-IXP-WINDi_r2_v1.2,2013-05-04 16:09:00,
2013-05-04 09:14:00,66.3,57.7,29.82,SE,128,5.0,7.0,74,0.00,,,0.00,536,HR-IXP-WINDi_r2_v1.2,2013-05-04 16:14:00,
2013-05-04 09:19:00,66.9,57.9,29.81,SSE,165,4.0,10.0,73,0.00,,,0.00,512,HR-IXP-WINDi_r2_v1.2,2013-05-04 16:19:00,
2013-05-04 09:24:00,66.2,57.2,29.81,South,177,2.0,10.0,73,0.00,,,0.00,559,HR-IXP-WINDi_r2_v1.2,2013-05-04 16:24:00,
2013-05-04 09:30:00,66.9,57.5,29.81,SSE,150,3.0,9.0,72,0.00,,,0.00,577,HR-IXP-WINDi_r2_v1.2,2013-05-04 16:30:00,
2013-05-04 09:35:00,66.4,57.0,29.81,SE,136,7.0,11.0,72,0.00,,,0.00,598,HR-IXP-WINDi_r2_v1.2,2013-05-04 16:35:00,
2013-05-04 09:40:00,66.8,57.4,29.81,SSE,162,2.0,11.0,72,0.00,,,0.00,610,HR-IXP-WINDi_r2_v1.2,2013-05-04 16:40:00,
2013-05-04 09:45:00,68.2,58.0,29.81,SSW,209,1.0,8.0,70,0.00,,,0.00,622,HR-IXP-WINDi_r2_v1.2,2013-05-04 16:45:00,
2013-05-04 09:51:00,68.7,58.1,29.81,SSW,202,7.0,7.0,69,0.00,,,0.00,635,HR-IXP-WINDi_r2_v1.2,2013-05-04 16:51:00,
2013-05-04 09:56:00,68.2,56.8,29.81,SSW,198,5.0,10.0,67,0.00,,,0.00,645,HR-IXP-WINDi_r2_v1.2,2013-05-04 16:56:00,
2013-05-04 10:01:00,68.4,57.8,29.82,SSE,163,3.0,10.0,69,0.00,,,0.00,661,HR-IXP-WINDi_r2_v1.2,2013-05-04 17:01:00,
2013-05-04 10:06:00,68.8,57.3,29.81,South,180,5.0,8.0,67,0.00,,,0.00,679,HR-IXP-WINDi_r2_v1.2,2013-05-04 17:06:00,
2013-05-04 10:12:00,68.1,57.1,29.82,South,170,5.0,9.0,68,0.00,,,0.00,687,HR-IXP-WINDi_r2_v1.2,2013-05-04 17:12:00,
2013-05-04 10:17:00,67.9,57.3,29.82,WSW,248,7.0,9.0,69,0.00,,,0.00,703,HR-IXP-WINDi_r2_v1.2,2013-05-04 17:17:00,
2013-05-04 10:22:00,68.7,58.5,29.82,SE,146,6.0,8.0,70,0.00,,,0.00,710,HR-IXP-WINDi_r2_v1.2,2013-05-04 17:22:00,
2013-05-04 10:27:00,69.1,58.0,29.82,SW,226,8.0,9.0,68,0.00,,,0.00,726,HR-IXP-WINDi_r2_v1.2,2013-05-04 17:27:00,
2013-05-04 10:32:00,68.6,57.6,29.82,South,185,4.0,9.0,68,0.00,,,0.00,733,HR-IXP-WINDi_r2_v1.2,2013-05-04 17:32:00,
2013-05-04 10:38:00,70.2,58.3,29.82,SSE,161,5.0,10.0,66,0.00,,,0.00,742,HR-IXP-WINDi_r2_v1.2,2013-05-04 17:38:00,
2013-05-04 10:43:00,69.8,57.9,29.82,South,172,3.0,10.0,66,0.00,,,0.00,752,HR-IXP-WINDi_r2_v1.2,2013-05-04 17:43:00,
2013-05-04 10:48:00,69.5,58.0,29.82,SSE,153,2.0,9.0,67,0.00,,,0.00,763,HR-IXP-WINDi_r2_v1.2,2013-05-04 17:48:00,
2013-05-04 10:53:00,70.0,57.6,29.82,WSW,243,1.0,9.0,65,0.00,,,0.00,775,HR-IXP-WINDi_r2_v1.2,2013-05-04 17:53:00,
2013-05-04 10:59:00,68.3,57.7,29.82,ESE,122,9.0,10.0,69,0.00,,,0.00,784,HR-IXP-WINDi_r2_v1.2,2013-05-04 17:59:00,
2013-05-04 11:04:00,68.9,57.4,29.82,SW,224,10.0,12.0,67,0.00,,,0.00,788,HR-IXP-WINDi_r2_v1.2,2013-05-04 18:04:00,
2013-05-04 11:09:00,69.4,58.3,29.82,SSE,159,4.0,13.0,68,0.00,,,0.00,809,HR-IXP-WINDi_r2_v1.2,2013-05-04 18:09:00,
2013-05-04 11:14:00,69.8,57.4,29.81,South,190,4.0,13.0,65,0.00,,,0.00,805,HR-IXP-WINDi_r2_v1.2,2013-05-04 18:14:00,
2013-05-04 11:20:00,70.8,58.0,29.82,SW,223,4.0,11.0,64,0.00,,,0.00,814,HR-IXP-WINDi_r2_v1.2,2013-05-04 18:20:00,
2013-05-04 11:25:00,69.4,57.5,29.81,SSE,165,6.0,11.0,66,0.00,,,0.00,828,HR-IXP-WINDi_r2_v1.2,2013-05-04 18:25:00,
2013-05-04 11:30:00,70.2,57.8,29.81,SSE,151,9.0,13.0,65,0.00,,,0.00,824,HR-IXP-WINDi_r2_v1.2,2013-05-04 18:30:00,
2013-05-04 11:35:00,68.7,57.7,29.81,SSW,203,3.0,13.0,68,0.00,,,0.00,837,HR-IXP-WINDi_r2_v1.2,2013-05-04 18:35:00,
2013-05-04 11:40:00,71.4,58.1,29.81,SSW,213,4.0,12.0,63,0.00,,,0.00,846,HR-IXP-WINDi_r2_v1.2,2013-05-04 18:40:00,
2013-05-04 11:46:00,70.1,57.3,29.81,South,182,6.0,11.0,64,0.00,,,0.00,854,HR-IXP-WINDi_r2_v1.2,2013-05-04 18:46:00,
2013-05-04 11:51:00,69.3,57.4,29.81,South,188,8.0,14.0,66,0.00,,,0.00,858,HR-IXP-WINDi_r2_v1.2,2013-05-04 18:51:00,
2013-05-04 11:56:00,70.1,57.3,29.81,SW,215,5.0,14.0,64,0.00,,,0.00,861,HR-IXP-WINDi_r2_v1.2,2013-05-04 18:56:00,
2013-05-04 12:01:00,70.2,57.4,29.80,SSE,166,11.0,12.0,64,0.00,,,0.00,867,HR-IXP-WINDi_r2_v1.2,2013-05-04 19:01:00,
2013-05-04 12:06:00,69.5,57.2,29.80,SSE,151,8.0,14.0,65,0.00,,,0.00,868,HR-IXP-WINDi_r2_v1.2,2013-05-04 19:06:00,
2013-05-04 12:11:00,69.3,57.4,29.80,SSE,155,3.0,14.0,66,0.00,,,0.00,882,HR-IXP-WINDi_r2_v1.2,2013-05-04 19:11:00,
2013-05-04 12:16:00,69.9,58.0,29.80,WSW,240,6.0,15.0,66,0.00,,,0.00,881,HR-IXP-WINDi_r2_v1.2,2013-05-04 19:16:00,
2013-05-04 12:21:00,70.2,57.4,29.80,South,191,5.0,15.0,64,0.00,,,0.00,877,HR-IXP-WINDi_r2_v1.2,2013-05-04 19:21:00,
2013-05-04 12:26:00,69.7,57.4,29.80,SSW,196,5.0,12.0,65,0.00,,,0.00,879,HR-IXP-WINDi_r2_v1.2,2013-05-04 19:26:00,
2013-05-04 12:31:00,69.9,57.1,29.80,SSW,192,7.0,12.0,64,0.00,,,0.00,886,HR-IXP-WINDi_r2_v1.2,2013-05-04 19:31:00,
2013-05-04 12:37:00,70.2,57.8,29.80,ESE,123,7.0,14.0,65,0.00,,,0.00,888,HR-IXP-WINDi_r2_v1.2,2013-05-04 19:37:00,
2013-05-04 12:42:00,69.9,57.1,29.79,SW,219,3.0,14.0,64,0.00,,,0.00,889,HR-IXP-WINDi_r2_v1.2,2013-05-04 19:42:00,
2013-05-04 12:47:00,70.5,57.2,29.79,South,177,6.0,11.0,63,0.00,,,0.00,891,HR-IXP-WINDi_r2_v1.2,2013-05-04 19:47:00,
2013-05-04 12:52:00,70.1,57.3,29.79,South,188,5.0,11.0,64,0.00,,,0.00,891,HR-IXP-WINDi_r2_v1.2,2013-05-04 19:52:00,
2013-05-04 12:57:00,71.6,58.3,29.79,South,186,6.0,12.0,63,0.00,,,0.00,893,HR-IXP-WINDi_r2_v1.2,2013-05-04 19:57:00,
2013-05-04 13:02:00,71.3,58.0,29.79,South,178,4.0,12.0,63,0.00,,,0.00,896,HR-IXP-WINDi_r2_v1.2,2013-05-04 20:02:00,
2013-05-04 13:08:00,71.7,58.8,29.79,SSE,155,6.0,11.0,64,0.00,,,0.00,902,HR-IXP-WINDi_r2_v1.2,2013-05-04 20:08:00,
2013-05-04 13:13:00,70.8,58.4,29.79,SSE,158,7.0,12.0,65,0.00,,,0.00,889,HR-IXP-WINDi_r2_v1.2,2013-05-04 20:13:00,
2013-05-04 13:18:00,71.2,57.5,29.79,South,191,6.0,12.0,62,0.00,,,0.00,758,HR-IXP-WINDi_r2_v1.2,2013-05-04 20:18:00,
2013-05-04 13:23:00,71.7,58.4,29.79,SSW,209,10.0,11.0,63,0.00,,,0.00,846,HR-IXP-WINDi_r2_v1.2,2013-05-04 20:23:00,
2013-05-04 13:28:00,72.0,57.8,29.78,SSE,167,7.0,12.0,61,0.00,,,0.00,708,HR-IXP-WINDi_r2_v1.2,2013-05-04 20:28:00,
2013-05-04 13:33:00,69.6,57.3,29.79,SSE,162,2.0,12.0,65,0.00,,,0.00,675,HR-IXP-WINDi_r2_v1.2,2013-05-04 20:33:00,
2013-05-04 13:38:00,70.9,57.6,29.79,South,173,4.0,12.0,63,0.00,,,0.00,800,HR-IXP-WINDi_r2_v1.2,2013-05-04 20:38:00,
2013-05-04 13:44:00,72.5,57.8,29.79,South,182,4.0,12.0,60,0.00,,,0.00,881,HR-IXP-WINDi_r2_v1.2,2013-05-04 20:44:00,
2013-05-04 13:49:00,72.2,56.6,29.79,South,189,7.0,11.0,58,0.00,,,0.00,872,HR-IXP-WINDi_r2_v1.2,2013-05-04 20:49:00,
2013-05-04 13:54:00,69.9,56.7,29.79,South,189,2.0,11.0,63,0.00,,,0.00,856,HR-IXP-WINDi_r2_v1.2,2013-05-04 20:54:00,
2013-05-04 13:59:00,70.7,57.0,29.79,SSW,204,5.0,11.0,62,0.00,,,0.00,849,HR-IXP-WINDi_r2_v1.2,2013-05-04 20:59:00,
2013-05-04 14:04:00,71.5,57.3,29.78,SW,223,8.0,15.0,61,0.00,,,0.00,821,HR-IXP-WINDi_r2_v1.2,2013-05-04 21:04:00,
2013-05-04 14:10:00,70.8,57.1,29.78,WSW,240,4.0,15.0,62,0.00,,,0.00,821,HR-IXP-WINDi_r2_v1.2,2013-05-04 21:10:00,
2013-05-04 14:15:00,70.1,56.9,29.78,South,177,4.0,11.0,63,0.00,,,0.00,777,HR-IXP-WINDi_r2_v1.2,2013-05-04 21:15:00,
2013-05-04 14:20:00,71.9,57.2,29.78,SE,135,3.0,12.0,60,0.00,,,0.00,819,HR-IXP-WINDi_r2_v1.2,2013-05-04 21:20:00,
2013-05-04 14:25:00,73.0,58.2,29.78,SE,139,6.0,12.0,60,0.00,,,0.00,805,HR-IXP-WINDi_r2_v1.2,2013-05-04 21:25:00,
2013-05-04 14:30:00,71.4,56.7,29.78,SSW,195,3.0,13.0,60,0.00,,,0.00,782,HR-IXP-WINDi_r2_v1.2,2013-05-04 21:30:00,
2013-05-04 14:36:00,72.1,57.4,29.77,SE,126,4.0,13.0,60,0.00,,,0.00,802,HR-IXP-WINDi_r2_v1.2,2013-05-04 21:36:00,
2013-05-04 14:41:00,72.1,57.9,29.77,South,173,8.0,12.0,61,0.00,,,0.00,791,HR-IXP-WINDi_r2_v1.2,2013-05-04 21:41:00,
2013-05-04 14:46:00,72.8,58.5,29.77,SSE,151,5.0,12.0,61,0.00,,,0.00,789,HR-IXP-WINDi_r2_v1.2,2013-05-04 21:46:00,
2013-05-04 14:51:00,71.5,57.7,29.77,SSE,165,4.0,14.0,62,0.00,,,0.00,768,HR-IXP-WINDi_r2_v1.2,2013-05-04 21:51:00,
2013-05-04 14:57:00,71.8,57.6,29.77,SSW,193,7.0,14.0,61,0.00,,,0.00,745,HR-IXP-WINDi_r2_v1.2,2013-05-04 21:57:00,
2013-05-04 15:02:00,70.7,58.3,29.77,South,174,2.0,12.0,65,0.00,,,0.00,773,HR-IXP-WINDi_r2_v1.2,2013-05-04 22:02:00,
2013-05-04 15:07:00,70.9,57.6,29.77,South,188,5.0,14.0,63,0.00,,,0.00,773,HR-IXP-WINDi_r2_v1.2,2013-05-04 22:07:00,
2013-05-04 15:12:00,71.4,58.1,29.77,SSE,166,7.0,14.0,63,0.00,,,0.00,742,HR-IXP-WINDi_r2_v1.2,2013-05-04 22:12:00,
2013-05-04 15:17:00,71.3,57.6,29.77,South,174,6.0,12.0,62,0.00,,,0.00,742,HR-IXP-WINDi_r2_v1.2,2013-05-04 22:17:00,
2013-05-04 15:23:00,70.9,57.6,29.77,SSE,163,9.0,13.0,63,0.00,,,0.00,710,HR-IXP-WINDi_r2_v1.2,2013-05-04 22:23:00,
2013-05-04 15:28:00,70.6,57.3,29.77,SSE,158,5.0,13.0,63,0.00,,,0.00,677,HR-IXP-WINDi_r2_v1.2,2013-05-04 22:28:00,
2013-05-04 15:33:00,71.5,57.7,29.76,South,180,6.0,12.0,62,0.00,,,0.00,633,HR-IXP-WINDi_r2_v1.2,2013-05-04 22:33:00,
2013-05-04 15:38:00,71.2,57.5,29.77,South,177,4.0,14.0,62,0.00,,,0.00,538,HR-IXP-WINDi_r2_v1.2,2013-05-04 22:38:00,
2013-05-04 15:44:00,70.7,57.9,29.77,WSW,239,9.0,14.0,64,0.00,,,0.00,541,HR-IXP-WINDi_r2_v1.2,2013-05-04 22:44:00,
2013-05-04 15:49:00,70.7,57.9,29.77,South,182,4.0,12.0,64,0.00,,,0.00,497,HR-IXP-WINDi_r2_v1.2,2013-05-04 22:49:00,
2013-05-04 15:54:00,71.3,58.0,29.77,SSE,167,10.0,12.0,63,0.00,,,0.00,568,HR-IXP-WINDi_r2_v1.2,2013-05-04 22:54:00,
2013-05-04 15:59:00,70.8,58.0,29.77,SE,139,5.0,14.0,64,0.00,,,0.00,605,HR-IXP-WINDi_r2_v1.2,2013-05-04 22:59:00,
2013-05-04 16:04:00,70.9,57.6,29.77,SSE,162,3.0,14.0,63,0.00,,,0.00,432,HR-IXP-WINDi_r2_v1.2,2013-05-04 23:04:00,
2013-05-04 16:10:00,69.9,57.5,29.77,SW,214,4.0,13.0,65,0.00,,,0.00,645,HR-IXP-WINDi_r2_v1.2,2013-05-04 23:10:00,
2013-05-04 16:15:00,70.1,57.7,29.77,SSE,154,8.0,12.0,65,0.00,,,0.00,457,HR-IXP-WINDi_r2_v1.2,2013-05-04 23:15:00,
2013-05-04 16:20:00,69.9,58.4,29.77,SSW,199,7.0,12.0,67,0.00,,,0.00,610,HR-IXP-WINDi_r2_v1.2,2013-05-04 23:20:00,
2013-05-04 16:25:00,69.9,58.4,29.77,SSE,149,4.0,12.0,67,0.00,,,0.00,566,HR-IXP-WINDi_r2_v1.2,2013-05-04 23:25:00,
2013-05-04 16:30:00,69.4,57.9,29.77,SSE,151,2.0,12.0,67,0.00,,,0.00,478,HR-IXP-WINDi_r2_v1.2,2013-05-04 23:30:00,
2013-05-04 16:35:00,69.2,57.3,29.78,SW,228,5.0,13.0,66,0.00,,,0.00,439,HR-IXP-WINDi_r2_v1.2,2013-05-04 23:35:00,
2013-05-04 16:41:00,67.9,57.3,29.78,SSE,162,5.0,13.0,69,0.00,,,0.00,439,HR-IXP-WINDi_r2_v1.2,2013-05-04 23:41:00,
2013-05-04 16:46:00,68.6,58.4,29.78,SSW,209,6.0,12.0,70,0.00,,,0.00,541,HR-IXP-WINDi_r2_v1.2,2013-05-04 23:46:00,
2013-05-04 16:51:00,68.1,57.1,29.78,SSE,165,4.0,12.0,68,0.00,,,0.00,482,HR-IXP-WINDi_r2_v1.2,2013-05-04 23:51:00,
2013-05-04 16:56:00,67.2,57.0,29.78,ESE,106,3.0,12.0,70,0.00,,,0.00,181,HR-IXP-WINDi_r2_v1.2,2013-05-04 23:56:00,
2013-05-04 17:02:00,67.3,57.1,29.78,SSW,194,4.0,11.0,70,0.00,,,0.00,281,HR-IXP-WINDi_r2_v1.2,2013-05-05 00:02:00,
2013-05-04 17:07:00,67.9,56.9,29.78,SSE,155,5.0,15.0,68,0.00,,,0.00,197,HR-IXP-WINDi_r2_v1.2,2013-05-05 00:07:00,
2013-05-04 17:12:00,66.9,56.3,29.78,SE,135,11.0,15.0,69,0.00,,,0.00,153,HR-IXP-WINDi_r2_v1.2,2013-05-05 00:12:00,
2013-05-04 17:17:00,66.2,56.8,29.78,SSE,168,4.0,13.0,72,0.00,,,0.00,176,HR-IXP-WINDi_r2_v1.2,2013-05-05 00:17:00,
2013-05-04 17:22:00,66.1,57.1,29.78,South,180,4.0,13.0,73,0.00,,,0.00,218,HR-IXP-WINDi_r2_v1.2,2013-05-05 00:22:00,
2013-05-04 17:28:00,66.2,56.8,29.79,South,190,6.0,14.0,72,0.00,,,0.00,120,HR-IXP-WINDi_r2_v1.2,2013-05-05 00:28:00,
2013-05-04 17:33:00,65.7,56.7,29.79,SSE,157,9.0,14.0,73,0.00,,,0.00,135,HR-IXP-WINDi_r2_v1.2,2013-05-05 00:33:00,
2013-05-04 17:38:00,65.2,56.6,29.79,SSW,199,6.0,12.0,74,0.00,,,0.00,151,HR-IXP-WINDi_r2_v1.2,2013-05-05 00:38:00,
2013-05-04 17:43:00,65.1,56.5,29.79,SSE,166,9.0,14.0,74,0.00,,,0.00,146,HR-IXP-WINDi_r2_v1.2,2013-05-05 00:43:00,
2013-05-04 17:48:00,65.1,56.5,29.79,SSE,163,6.0,14.0,74,0.00,,,0.00,118,HR-IXP-WINDi_r2_v1.2,2013-05-05 00:48:00,
2013-05-04 17:54:00,65.0,56.4,29.79,SE,134,5.0,13.0,74,0.00,,,0.00,123,HR-IXP-WINDi_r2_v1.2,2013-05-05 00:54:00,
2013-05-04 17:59:00,65.2,56.6,29.79,South,173,4.0,12.0,74,0.00,,,0.00,185,HR-IXP-WINDi_r2_v1.2,2013-05-05 00:59:00,
2013-05-04 18:04:00,65.0,56.4,29.79,South,188,5.0,10.0,74,0.00,,,0.00,134,HR-IXP-WINDi_r2_v1.2,2013-05-05 01:04:00,
2013-05-04 18:09:00,64.9,56.4,29.79,South,188,6.0,11.0,74,0.00,,,0.00,132,HR-IXP-WINDi_r2_v1.2,2013-05-05 01:09:00,
2013-05-04 18:15:00,64.9,56.4,29.79,SSE,167,3.0,11.0,74,0.00,,,0.00,86,HR-IXP-WINDi_r2_v1.2,2013-05-05 01:15:00,
2013-05-04 18:20:00,64.8,56.3,29.79,South,177,7.0,15.0,74,0.00,,,0.00,118,HR-IXP-WINDi_r2_v1.2,2013-05-05 01:20:00,
2013-05-04 18:25:00,64.5,56.0,29.78,SSW,193,4.0,15.0,74,0.00,,,0.00,70,HR-IXP-WINDi_r2_v1.2,2013-05-05 01:25:00,
2013-05-04 18:30:00,64.0,56.2,29.79,SSE,167,4.0,10.0,76,0.00,,,0.00,93,HR-IXP-WINDi_r2_v1.2,2013-05-05 01:30:00,
2013-05-04 18:36:00,64.1,56.0,29.79,SSW,197,4.0,10.0,75,0.00,,,0.00,134,HR-IXP-WINDi_r2_v1.2,2013-05-05 01:36:00,
2013-05-04 18:41:00,64.2,56.0,29.79,SE,140,5.0,10.0,75,0.00,,,0.00,83,HR-IXP-WINDi_r2_v1.2,2013-05-05 01:41:00,
2013-05-04 18:46:00,63.9,56.1,29.79,SSE,167,3.0,10.0,76,0.00,,,0.00,79,HR-IXP-WINDi_r2_v1.2,2013-05-05 01:46:00,
2013-05-04 18:51:00,63.8,56.0,29.79,SE,145,5.0,10.0,76,0.00,,,0.00,49,HR-IXP-WINDi_r2_v1.2,2013-05-05 01:51:00,
2013-05-04 18:56:00,63.5,55.7,29.79,South,173,6.0,11.0,76,0.00,,,0.00,32,HR-IXP-WINDi_r2_v1.2,2013-05-05 01:56:00,
2013-05-04 19:01:00,63.4,56.0,29.79,SSE,167,1.0,11.0,77,0.00,,,0.00,25,HR-IXP-WINDi_r2_v1.2,2013-05-05 02:01:00,
2013-05-04 19:06:00,63.5,55.7,29.80,South,183,10.0,10.0,76,0.00,,,0.00,35,HR-IXP-WINDi_r2_v1.2,2013-05-05 02:06:00,
2013-05-04 19:11:00,63.2,55.4,29.80,SSE,157,5.0,14.0,76,0.00,,,0.00,23,HR-IXP-WINDi_r2_v1.2,2013-05-05 02:11:00,
2013-05-04 19:16:00,63.1,55.7,29.80,SSE,168,6.0,14.0,77,0.00,,,0.00,16,HR-IXP-WINDi_r2_v1.2,2013-05-05 02:16:00,
2013-05-04 19:21:00,62.9,55.5,29.80,SSE,147,7.0,10.0,77,0.00,,,0.00,7,HR-IXP-WINDi_r2_v1.2,2013-05-05 02:21:00,
2013-05-04 19:27:00,62.9,55.5,29.80,SSE,154,6.0,12.0,77,0.00,,,0.00,5,HR-IXP-WINDi_r2_v1.2,2013-05-05 02:27:00,
2013-05-04 19:32:00,62.6,55.2,29.81,SSE,152,3.0,12.0,77,0.00,,,0.00,0,HR-IXP-WINDi_r2_v1.2,2013-05-05 02:32:00,
2013-05-04 19:37:00,62.6,55.2,29.81,SSE,165,4.0,10.0,77,0.00,,,0.00,0,HR-IXP-WINDi_r2_v1.2,2013-05-05 02:37:00,
2013-05-04 19:42:00,62.6,55.2,29.81,SSE,148,9.0,10.0,77,0.00,,,0.00,0,HR-IXP-WINDi_r2_v1.2,2013-05-05 02:42:00,
2013-05-04 19:47:00,62.5,55.5,29.81,SSE,163,6.0,9.0,78,0.00,,,0.00,0,HR-IXP-WINDi_r2_v1.2,2013-05-05 02:47:00,
2013-05-04 19:53:00,62.5,55.5,29.81,SW,229,5.0,9.0,78,0.00,,,0.00,0,HR-IXP-WINDi_r2_v1.2,2013-05-05 02:53:00,
2013-05-04 19:58:00,62.4,55.4,29.81,SSE,150,4.0,9.0,78,0.00,,,0.00,0,HR-IXP-WINDi_r2_v1.2,2013-05-05 02:58:00,
2013-05-04 20:03:00,62.3,55.3,29.82,South,172,6.0,10.0,78,0.00,,,0.00,0,HR-IXP-WINDi_r2_v1.2,2013-05-05 03:03:00,
2013-05-04 20:08:00,62.3,55.3,29.82,SSE,161,6.0,10.0,78,0.00,,,0.00,0,HR-IXP-WINDi_r2_v1.2,2013-05-05 03:08:00,
2013-05-04 20:13:00,62.2,55.2,29.82,SSE,159,4.0,10.0,78,0.00,,,0.00,0,HR-IXP-WINDi_r2_v1.2,2013-05-05 03:13:00,
2013-05-04 20:18:00,62.2,55.2,29.82,SSE,165,3.0,10.0,78,0.00,,,0.00,0,HR-IXP-WINDi_r2_v1.2,2013-05-05 03:18:00,
2013-05-04 20:23:00,62.2,55.2,29.82,SSE,165,3.0,9.0,78,0.00,,,0.00,0,HR-IXP-WINDi_r2_v1.2,2013-05-05 03:23:00,
2013-05-04 20:29:00,62.2,55.5,29.83,South,169,4.0,9.0,79,0.00,,,0.00,0,HR-IXP-WINDi_r2_v1.2,2013-05-05 03:29:00,
2013-05-04 20:34:00,62.2,55.5,29.83,SSE,151,2.0,9.0,79,0.00,,,0.00,0,HR-IXP-WINDi_r2_v1.2,2013-05-05 03:34:00,
2013-05-04 20:39:00,62.2,55.2,29.83,South,180,2.0,8.0,78,0.00,,,0.00,0,HR-IXP-WINDi_r2_v1.2,2013-05-05 03:39:00,
2013-05-04 20:44:00,62.0,55.0,29.84,SSW,205,5.0,10.0,78,0.00,,,0.00,0,HR-IXP-WINDi_r2_v1.2,2013-05-05 03:44:00,
2013-05-04 20:50:00,61.9,54.5,29.84,SW,218,7.0,10.0,77,0.00,,,0.00,0,HR-IXP-WINDi_r2_v1.2,2013-05-05 03:50:00,
2013-05-04 20:55:00,61.9,54.9,29.84,SSE,149,6.0,10.0,78,0.00,,,0.00,0,HR-IXP-WINDi_r2_v1.2,2013-05-05 03:55:00,
2013-05-04 21:00:00,61.9,54.9,29.84,SSW,192,2.0,9.0,78,0.00,,,0.00,0,HR-IXP-WINDi_r2_v1.2,2013-05-05 04:00:00,
2013-05-04 21:01:00,61.9,54.5,29.84,SSE,150,4.0,8.0,77,0.00,,,0.00,0,HR-IXP-WINDi_r2_v1.2,2013-05-05 04:01:00,
2013-05-04 21:06:00,61.6,54.3,29.85,SSW,197,7.0,10.0,77,0.00,,,0.00,0,HR-IXP-WINDi_r2_v1.2,2013-05-05 04:06:00,
2013-05-04 21:11:00,61.6,54.3,29.85,SSE,164,1.0,10.0,77,0.00,,,0.00,0,HR-IXP-WINDi_r2_v1.2,2013-05-05 04:11:00,
2013-05-04 21:16:00,61.6,54.3,29.85,SSE,153,7.0,10.0,77,0.00,,,0.00,0,HR-IXP-WINDi_r2_v1.2,2013-05-05 04:16:00,
2013-05-04 21:21:00,61.6,53.9,29.85,SSE,148,6.0,8.0,76,0.00,,,0.00,0,HR-IXP-WINDi_r2_v1.2,2013-05-05 04:21:00,
2013-05-04 21:26:00,61.5,53.8,29.85,SSE,164,3.0,8.0,76,0.00,,,0.00,0,HR-IXP-WINDi_r2_v1.2,2013-05-05 04:26:00,
2013-05-04 21:32:00,61.5,53.8,29.86,SSE,150,3.0,8.0,76,0.00,,,0.00,0,HR-IXP-WINDi_r2_v1.2,2013-05-05 04:32:00,
2013-05-04 21:37:00,61.4,53.3,29.86,SE,140,6.0,9.0,75,0.00,,,0.00,0,HR-IXP-WINDi_r2_v1.2,2013-05-05 04:37:00,
2013-05-04 21:42:00,61.4,53.7,29.86,SSE,148,3.0,9.0,76,0.00,,,0.00,0,HR-IXP-WINDi_r2_v1.2,2013-05-05 04:42:00,
2013-05-04 21:47:00,61.5,53.8,29.86,SSE,163,6.0,8.0,76,0.00,,,0.00,0,HR-IXP-WINDi_r2_v1.2,2013-05-05 04:47:00,
2013-05-04 21:52:00,61.4,53.7,29.86,SE,146,3.0,7.0,76,0.00,,,0.00,0,HR-IXP-WINDi_r2_v1.2,2013-05-05 04:52:00,
2013-05-04 21:57:00,61.6,53.9,29.86,SSE,157,2.0,7.0,76,0.00,,,0.00,0,HR-IXP-WINDi_r2_v1.2,2013-05-05 04:57:00,
2013-05-04 22:03:00,61.6,54.6,29.86,South,173,1.0,7.0,78,0.00,,,0.00,0,HR-IXP-WINDi_r2_v1.2,2013-05-05 05:03:00,
2013-05-04 22:08:00,61.4,55.1,29.86,South,188,3.0,7.0,80,0.00,,,0.00,0,HR-IXP-WINDi_r2_v1.2,2013-05-05 05:08:00,
2013-05-04 22:13:00,61.1,55.2,29.86,SSW,201,0.0,6.0,81,0.00,,,0.00,0,HR-IXP-WINDi_r2_v1.2,2013-05-05 05:13:00,
2013-05-04 22:18:00,61.1,55.2,29.87,SSE,165,3.0,6.0,81,0.00,,,0.00,0,HR-IXP-WINDi_r2_v1.2,2013-05-05 05:18:00,
2013-05-04 22:23:00,60.9,55.0,29.86,SSE,161,4.0,8.0,81,0.00,,,0.00,0,HR-IXP-WINDi_r2_v1.2,2013-05-05 05:23:00,
2013-05-04 22:28:00,60.9,53.9,29.87,South,176,1.0,8.0,78,0.00,,,0.00,0,HR-IXP-WINDi_r2_v1.2,2013-05-05 05:28:00,
2013-05-04 22:34:00,61.3,53.6,29.87,SE,146,6.0,7.0,76,0.00,,,0.00,0,HR-IXP-WINDi_r2_v1.2,2013-05-05 05:34:00,
2013-05-04 22:39:00,61.5,53.4,29.87,SE,146,3.0,7.0,75,0.00,,,0.00,0,HR-IXP-WINDi_r2_v1.2,2013-05-05 05:39:00,
2013-05-04 22:44:00,61.4,53.3,29.87,ESE,115,7.0,9.0,75,0.00,,,0.00,0,HR-IXP-WINDi_r2_v1.2,2013-05-05 05:44:00,
2013-05-04 22:49:00,61.3,53.2,29.87,SE,138,7.0,11.0,75,0.00,,,0.00,0,HR-IXP-WINDi_r2_v1.2,2013-05-05 05:49:00,
2013-05-04 22:55:00,61.2,53.5,29.86,SE,131,2.0,11.0,76,0.00,,,0.00,0,HR-IXP-WINDi_r2_v1.2,2013-05-05 05:55:00,
2013-05-04 23:00:00,61.2,53.5,29.87,SE,138,3.0,9.0,76,0.00,,,0.00,0,HR-IXP-WINDi_r2_v1.2,2013-05-05 06:00:00,
2013-05-04 23:05:00,61.2,53.5,29.86,SSE,154,4.0,8.0,76,0.00,,,0.00,0,HR-IXP-WINDi_r2_v1.2,2013-05-05 06:05:00,
2013-05-04 23:10:00,61.0,53.3,29.86,SE,137,5.0,8.0,76,0.00,,,0.00,0,HR-IXP-WINDi_r2_v1.2,2013-05-05 06:10:00,
2013-05-04 23:15:00,60.9,53.2,29.86,ESE,119,2.0,8.0,76,0.00,,,0.00,0,HR-IXP-WINDi_r2_v1.2,2013-05-05 06:15:00,
2013-05-04 23:20:00,60.7,52.7,29.86,SE,136,3.0,9.0,75,0.00,,,0.00,0,HR-IXP-WINDi_r2_v1.2,2013-05-05 06:20:00,
2013-05-04 23:26:00,60.7,52.7,29.87,SSE,163,4.0,11.0,75,0.00,,,0.00,0,HR-IXP-WINDi_r2_v1.2,2013-05-05 06:26:00,
2013-05-04 23:31:00,60.6,52.6,29.87,SSE,153,3.0,11.0,75,0.00,,,0.00,0,HR-IXP-WINDi_r2_v1.2,2013-05-05 06:31:00,
2013-05-04 23:36:00,60.7,52.7,29.87,SSE,166,4.0,8.0,75,0.00,,,0.00,0,HR-IXP-WINDi_r2_v1.2,2013-05-05 06:36:00,
2013-05-04 23:41:00,60.6,52.9,29.87,SE,137,3.0,8.0,76,0.00,,,0.00,0,HR-IXP-WINDi_r2_v1.2,2013-05-05 06:41:00,
2013-05-04 23:46:00,60.7,53.0,29.87,SSE,150,2.0,10.0,76,0.00,,,0.00,0,HR-IXP-WINDi_r2_v1.2,2013-05-05 06:46:00,
2013-05-04 23:51:00,60.7,53.0,29.87,SSE,152,4.0,10.0,76,0.00,,,0.00,0,HR-IXP-WINDi_r2_v1.2,2013-05-05 06:51:00,
2013-05-04 23:57:00,60.6,53.3,29.87,SE,129,2.0,9.0,77,0.00,,,0.00,0,HR-IXP-WINDi_r2_v1.2,2013-05-05 06:57:00,